Regional Weather Roundup
Issued by NWS

Home | Current Version | Previous Version | Graphics & Text | Print | Product List | Glossary Off
Versions: 1 2 3 4 5 6 7 8 9 10 11 12 13 14 15 16 17 18 19 20 21 22 23 24 25 26 27 28 29 30 31 32 33 34 35 36 37 38 39 40 41 42 43 44 45 46 47 48 49 50

000
ASUS43 KMPX 242110
RWRMN
WEATHER ROUNDUP FOR MINNESOTA
NATIONAL WEATHER SERVICE TWIN CITIES/CHANHASSEN MN
400 PM CDT FRI MAR 24 2017


NOTE: "FAIR" INDICATES FEW OR NO CLOUDS BELOW 12,000 FEET WITH NO
SIGNIFICANT WEATHER AND/OR OBSTRUCTIONS TO VISIBILITY. N/A MEANS
CURRENT SKY AND/OR WEATHER CONDITIONS ARE NOT AVAILABLE.

MNZ060>063-068>070-242200-
   Twin Cities Metro

CITY           SKY/WX    TMP DP  RH WIND       PRES   REMARKS
TWIN CITIES    CLOUDY    45  36  70 N13       30.07F
ST PAUL        CLOUDY    45  37  73 N13       30.08S
CRYSTAL        CLOUDY    44  33  65 N13       30.08R
BLAINE         CLOUDY    45  39  81 N13       30.08S
LAKEVILLE      CLOUDY    43  37  81 N12       30.06S
EDEN PRAIRIE   CLOUDY    45  36  70 N12       30.05F
SOUTH ST PAUL  CLOUDY    45  36  69 N12       30.06F
LAKE ELMO      CLOUDY    43  37  81 N9        30.08S
$$
MNZ001>005-007-008-013>017-022>024-027-028-242200-
   Northwest Minnesota

CITY           SKY/WX    TMP DP  RH WIND       PRES   REMARKS
BEMIDJI        CLOUDY    41  31  66 N5        30.14S
HALLOCK        CLOUDY    34  30  86 N9        30.22F WCI  26
ROSEAU         MOSUNNY   36  28  75 N6        30.21S
WARROAD        CLOUDY    36  27  69 NE6       30.21S
THIEF RVR FALL CLOUDY   N/A N/A N/A N12       30.20R
CROOKSTON      CLOUDY    36  30  80 N10       30.22R
FOSSTON        CLOUDY    39  30  70 N8        30.17S
DETROIT LAKES  CLOUDY    41  32  70 N7        30.14S
MOORHEAD       CLOUDY    39  32  75 N15G23    30.18R
PARK RAPIDS    CLOUDY    43  29  57 NE7       30.12R
MAHNOMEN       MOCLDY    39  32  76 N13       30.15S
$$
MNZ006-009>011-018-025>026-242200-
   North Central Minnesota

CITY           SKY/WX    TMP DP  RH WIND       PRES   REMARKS
BAUDETTE       CLOUDY    39  25  57 N10       30.17S
FLAG ISLAND    CLOUDY    34  25  69 N6        30.21R WCI  29
INTL FALLS     CLOUDY    39  26  59 NE7       30.16S
WASKISH        CLOUDY    39  30  70 W6        30.16R
BIG FORK       CLOUDY    39  28  65 NE6       30.14S
LONGVILLE      CLOUDY    39  30  70 NE5       30.13R
GRAND RAPIDS   CLOUDY    38  32  79 N7        30.15R
CRANE LAKE     CLOUDY    36  27  69 N3        30.17F
ORR            CLOUDY    37  28  70 CALM      30.13S
COOK           CLOUDY    37  32  81 N3        30.15S
WALKER         CLOUDY    38  31  74 NE6       30.13R
$$
MNZ012-019>021-037-242200-
   Northeast Minnesota

CITY           SKY/WX    TMP DP  RH WIND       PRES   REMARKS
DULUTH         CLOUDY    38  34  85 N7        30.12R
ELY            CLOUDY    36  30  80 N3        30.14R
HIBBING        CLOUDY    37  33  85 NE7       30.13R
EVELETH        CLOUDY    37  33  83 NE5       30.14R
DULUTH HARBOR  CLOUDY    37  34  87 CALM      30.16R
TWO HARBORS    CLOUDY    41  36  81 CALM      30.12R
SILVER BAY     CLOUDY    39  36  87 CALM      30.12R
GRAND MARAIS     N/A     39  35  86 CALM      30.15R
G MARAIS ARPRT CLOUDY    34  28  80 N6        30.12R HAZE    WCI  29
$$
MNZ029>031-032-039>041-046>048-054>057-064-242200-
   West Central Minnesota

CITY           SKY/WX    TMP DP  RH WIND       PRES   REMARKS
FERGUS FALLS   CLOUDY    45  32  61 N10       30.17R
WHEATON        CLOUDY    43  32  65 N13G18    30.17R
MORRIS         MOSUNNY   46  36  66 NE8       30.12S
ALEXANDRIA     CLOUDY    43  34  70 N8        30.12S
ELBOW LAKE     FAIR      45  34  65 N8        30.13R
WADENA         CLOUDY    43  32  65 N8        30.12R
GLENWOOD       MOSUNNY   41  34  75 NE10      30.13R
APPLETON       CLOUDY    45  36  70 N5        30.15R
BENSON         PTSUNNY   45  32  61 NE10      30.14S
ORTONVILLE     CLOUDY    43  36  75 N7        30.15R
MADISON        CLOUDY    45  39  81 NE9       30.13F
WILLMAR        CLOUDY    39  37  93 N14       30.13S
$$
MNZ033>034-036-042>043-049>051-058-059-242200-
   Central Minnesota

CITY           SKY/WX    TMP DP  RH WIND       PRES   REMARKS
ST CLOUD       CLOUDY    40  34  79 N14       30.11F
SAUK CENTRE    CLOUDY    39  33  78 NE6       30.13R
PAYNESVILLE      N/A     38  37  95 N7        30.13R
AITKIN         CLOUDY    43  30  61 NE6       30.12R
PINE RIVER     CLOUDY    39  32  75 N8        30.16R
BRAINERD       CLOUDY    40  32  73 NE9       30.13R
STAPLES        CLOUDY    43  30  61 NE9       30.13R
LONG PRAIRIE   CLOUDY    39  32  75 N7        30.12S
LITTLE FALLS   CLOUDY    39  32  75 NE5       30.14R
LITCHFIELD     CLOUDY    39  36  87 N9        30.11R
BUFFALO        CLOUDY    40  34  77 N10       30.11S
MAPLE LAKE     CLOUDY    41  36  84 N12       30.11S
HUTCHINSON     CLOUDY    41  37  83 N9G18     30.09S
$$
MNZ037-044-045-052-053-242200-
   East Central Minnesota

CITY           SKY/WX    TMP DP  RH WIND       PRES   REMARKS
PRINCETON      CLOUDY    41  36  81 N12       30.12S
MORA           CLOUDY    37  32  81 N6        30.15R
CAMBRIDGE      CLOUDY    43  34  70 N9        30.09S
RUSH CITY      CLOUDY    39  34  81 N8        30.12R
MOOSE LAKE     CLOUDY    37  32  81 NE8       30.11R
HINCKLEY       CLOUDY    39  34  81 N7        30.13R
CLOQUET        CLOUDY    39  32  75 NE8       30.12R
MCGREGOR       CLOUDY    39  32  75 NE7       30.14R
$$
MNZ071>073-080-081-089-090-097-098-242200-
   Southwest Minnesota

CITY           SKY/WX    TMP DP  RH WIND       PRES   REMARKS
MONTEVIDEO     CLOUDY    39  37  93 NE12      30.15S
GRANITE FALLS  CLOUDY    42  37  83 N12       30.13S
CANBY          CLOUDY    41  37  86 N8        30.13F
MARSHALL       CLOUDY    40  36  86 N15       30.11F
REDWOOD FALLS  CLOUDY    42  35  76 N9        30.10R
OLIVIA         CLOUDY    41  36  81 N13       30.11R
PIPESTONE      CLOUDY    39  34  81 NE16G22   30.07S HAZE
WINDOM         MOSUNNY   43  39  87 N16G23    30.05R
WORTHINGTON    CLOUDY    41  37  87 N18G25    30.04S
JACKSON        CLOUDY    41  37  87 N18G26    30.03R
TRACY          CLOUDY    41  38  89 N15       30.09F
SLAYTON        CLOUDY    38  37  94 N21       30.06F FOG
$$
MNZ065>067-074>077-082>085-091>093-242200-
   South Central Minnesota

CITY           SKY/WX    TMP DP  RH WIND       PRES   REMARKS
MANKATO        CLOUDY    43  37  79 N17       30.05S
NEW ULM        CLOUDY    43  36  75 N10       30.06R
ST JAMES       CLOUDY    43  39  87 N14       30.07R
FAIRMONT       CLOUDY    41  38  89 N10       30.05R
GLENCOE        CLOUDY    43  39  85 N12G20    30.08R
FARIBAULT      CLOUDY    43  39  87 CALM      30.06S
OWATONNA       CLOUDY    41  36  81 NE10      30.04S
WASECA         CLOUDY    41  37  87 NE13      30.05R
ALBERT LEA     CLOUDY    39  39 100 N18       30.01R FOG
$$
MNZ078>079-086>088-094>096-242200-
   Southeast Minnesota

CITY           SKY/WX    TMP DP  RH WIND       PRES   REMARKS
ROCHESTER      CLOUDY    39  38  96 N18       30.01S
RED WING       CLOUDY    45  36  70 N6        30.06R
STANTON        CLOUDY    44  38  82 N9        30.05S
DODGE CENTER   CLOUDY    37  37 100 N14       30.03R
WINONA         CLOUDY    41  37  87 NE7       30.05R
AUSTIN         CLOUDY    41  37  87 N14G21    30.01R
PRESTON        CLOUDY    39  37  93 NE10G17   30.01R
$$
ABBREVIATIONS USED IN REMARKS
   TC - TEMPERATURES IN CELSIUS
  WCI - WIND CHILL INDEX
   HX - HEAT INDEX
  VSB - VISIBILITY
$$



USA.gov is the U.S. government's official web portal to all federal, state and local government web resources and services.